DW8790 Maspalomas ES current weather conditions

sailwx.info

Wind from 280 at 4 knots gusting 7

Air temperature 24.4° C
Dewpoint 17.4° C

Last reported at 2014-Jul-30 09:50 UTC.
Time now 2014-Jul-30 11:05 UTC

Location: N 27°46' W 015°34'.
View on Google Maps.

See reports from other nearby stations

  
Tides and Currents Weather Stations Pressure Air Temp Water Temp Dewpoint Dewpoint Depression Visibility Wind Speed Wind Dir Waves Ship Positions
date/time (UTC)wind fromknots sea level pressurealtimeterstation pressurevisibilityair tempwater tempwave heightnotes
2014-Jul-30 10:50 240 6 gusting 10 25.6
2014-Jul-30 10:40 255 4 gusting 7 25.6
2014-Jul-30 10:30 256 5 gusting 7 25.0
2014-Jul-30 10:20 267 4 gusting 8 25.0
2014-Jul-30 10:10 242 2 gusting 8 25.0
2014-Jul-30 10:00 186 4 gusting 6 24.4
2014-Jul-30 09:50 280 4 gusting 7 24.4
2014-Jul-30 09:40 264 5 gusting 6 24.4
2014-Jul-30 09:30 216 1 gusting 5 24.4
2014-Jul-30 09:20 181 0 gusting 6 24.4
2014-Jul-30 09:10 297 3 gusting 4 23.9
2014-Jul-30 09:00 213 0 gusting 4 23.9
2014-Jul-30 08:50 123 5 gusting 8 24.4
2014-Jul-30 08:40 130 3 gusting 7 24.4
2014-Jul-30 08:30 126 6 gusting 10 24.4
2014-Jul-30 08:20 101 5 gusting 7 23.9
2014-Jul-30 08:10 098 1 gusting 6 23.9
2014-Jul-30 08:00 071 2 gusting 5 23.3
2014-Jul-30 07:50 084 1 gusting 4 22.8
2014-Jul-30 07:40 049 22.2
2014-Jul-30 07:30 049 21.7
2014-Jul-30 07:20 049 21.1
2014-Jul-30 07:10 049 1 gusting 4 20.6
2014-Jul-30 07:00 048 2 gusting 2 20.0
2014-Jul-30 06:50 058 1 gusting 2 19.4
2014-Jul-30 06:40 329 19.4
2014-Jul-30 06:30 329 19.4
2014-Jul-30 06:20 329 19.4
2014-Jul-30 06:10 329 19.4
2014-Jul-30 06:00 329 19.4
2014-Jul-30 05:50 329 1 gusting 2 19.4
2014-Jul-30 05:40 337 0 gusting 2 19.4
2014-Jul-30 05:30 336 19.4
2014-Jul-30 05:20 336 19.4
2014-Jul-30 05:10 336 1 gusting 2 19.4
2014-Jul-30 05:00 336 0 gusting 2 19.4
2014-Jul-30 04:50 336 0 gusting 2 19.4
2014-Jul-30 04:40 320 2 gusting 4 19.4
2014-Jul-30 04:30 314 2 gusting 4 19.4
2014-Jul-30 04:20 308 1 gusting 4 19.4
2014-Jul-30 04:10 308 2 gusting 4 19.4
2014-Jul-30 04:00 270 20.0
2014-Jul-30 03:50 270 20.0
2014-Jul-30 03:40 270 20.0
2014-Jul-30 03:30 270 20.0
2014-Jul-30 03:20 270 20.0
2014-Jul-30 03:10 270 20.0
2014-Jul-30 03:00 270 20.0
2014-Jul-30 02:50 270 20.6
2014-Jul-30 02:40 270 20.6
2014-Jul-30 02:30 270 20.6
2014-Jul-30 02:20 270 20.6
2014-Jul-30 02:10 270 21.1
2014-Jul-30 02:00 270 21.1
2014-Jul-30 01:50 270 21.7
2014-Jul-30 01:40 270 0 gusting 4 21.7
2014-Jul-30 01:30 236 21.7
2014-Jul-30 01:20 281 2 gusting 4 21.7
2014-Jul-30 01:10 184 0 gusting 5 22.2
2014-Jul-30 01:00 225 1 gusting 5 22.2
2014-Jul-30 00:50 262 4 gusting 6 21.7
2014-Jul-30 00:40 288 21.7
2014-Jul-30 00:30 288 21.7
2014-Jul-30 00:20 288 0 gusting 4 21.7
2014-Jul-30 00:10 322 21.7
2014-Jul-30 00:00 322 21.7
2014-Jul-29 23:50 322 21.7
2014-Jul-29 23:40 322 22.2
2014-Jul-29 23:30 322 22.2
2014-Jul-29 23:20 322 0 gusting 4 22.2
2014-Jul-29 23:10 316 2 gusting 5 22.2
2014-Jul-29 23:00 320 4 gusting 6 22.2
2014-Jul-29 22:50 331 2 gusting 5 22.2
2014-Jul-29 22:40 313 2 gusting 5 22.2
2014-Jul-29 22:30 314 3 gusting 5 22.2
2014-Jul-29 22:20 302 2 gusting 5 22.2
2014-Jul-29 22:10 314 2 gusting 4 22.2
2014-Jul-29 22:00 136 1 gusting 2 22.2
2014-Jul-29 21:50 136 22.2
2014-Jul-29 21:40 136 22.2
2014-Jul-29 21:30 157 0 gusting 6 22.2
2014-Jul-29 21:20 139 4 gusting 6 22.8
2014-Jul-29 21:10 119 7 gusting 10 22.8
2014-Jul-29 21:00 125 5 gusting 6 23.3
2014-Jul-29 20:50 158 4 gusting 6 23.3
2014-Jul-29 20:40 106 6 gusting 8 23.9
2014-Jul-29 20:30 269 23.9
2014-Jul-29 20:20 306 2 gusting 5 23.9
2014-Jul-29 20:10 298 2 gusting 7 23.9
2014-Jul-29 20:00 290 4 gusting 8 24.4
2014-Jul-29 19:50 292 4 gusting 8 24.4
2014-Jul-29 19:40 309 7 gusting 13 24.4
2014-Jul-29 19:30 275 7 gusting 13 25.0
2014-Jul-29 19:20 280 6 gusting 13 25.6
2014-Jul-29 19:10 288 6 gusting 13 26.1
2014-Jul-29 19:00 278 6 gusting 13 26.7
2014-Jul-29 18:50 289 7 gusting 12 27.2
2014-Jul-29 18:40 277 6 gusting 10 27.2
2014-Jul-29 18:30 269 6 gusting 11 27.2
2014-Jul-29 18:20 291 5 gusting 13 27.2
2014-Jul-29 18:10 285 6 gusting 11 27.2
2014-Jul-29 18:00 287 6 gusting 11 27.2
2014-Jul-29 17:50 251 6 gusting 11 26.7
2014-Jul-29 17:40 238 6 gusting 11 26.7
2014-Jul-29 17:30 271 6 gusting 11 27.2
2014-Jul-29 17:20 274 5 gusting 10 26.7
2014-Jul-29 17:10 262 6 gusting 12 26.7
2014-Jul-29 17:00 205 5 gusting 10 26.7
2014-Jul-29 16:50 216 5 gusting 10 26.7
2014-Jul-29 16:40 191 6 gusting 10 26.7
2014-Jul-29 16:30 173 5 gusting 12 26.1
2014-Jul-29 16:20 224 6 gusting 10 26.7
2014-Jul-29 16:10 215 4 gusting 10 26.7
2014-Jul-29 16:00 188 7 gusting 10 26.7
2014-Jul-29 15:50 148 5 gusting 8 26.7
2014-Jul-29 15:40 168 5 gusting 10 27.2
2014-Jul-29 15:30 154 3 gusting 10 27.2
2014-Jul-29 15:20 168 4 gusting 8 27.8
2014-Jul-29 15:10 123 5 gusting 7 27.8
2014-Jul-29 15:00 210 2 gusting 7 27.2
2014-Jul-29 14:50 221 5 gusting 8 27.2
2014-Jul-29 14:40 279 4 gusting 12 27.2
2014-Jul-29 14:30 241 7 gusting 12 26.7
2014-Jul-29 14:20 202 7 gusting 12 26.7
2014-Jul-29 14:10 239 7 gusting 13 27.2
2014-Jul-29 14:00 234 6 gusting 13 27.2
2014-Jul-29 13:50 278 7 gusting 13 26.7
2014-Jul-29 13:40 240 6 gusting 14 26.7
2014-Jul-29 13:30 246 9 gusting 13 26.7
2014-Jul-29 13:20 248 8 gusting 14 27.2
2014-Jul-29 13:10 244 7 gusting 12 26.7
2014-Jul-29 13:00 236 6 gusting 11 27.2
2014-Jul-29 12:50 294 4 gusting 11 27.2
2014-Jul-29 12:40 254 6 gusting 10 27.2
2014-Jul-29 12:30 221 4 gusting 7 27.2
2014-Jul-29 12:20 247 2 gusting 7 26.7
2014-Jul-29 12:10 223 6 gusting 8 26.7
2014-Jul-29 12:00 244 2 gusting 7 26.1
2014-Jul-29 11:50 247 2 gusting 6 25.6
2014-Jul-29 11:40 158 4 gusting 7 26.1
2014-Jul-29 11:30 184 6 gusting 10 26.1
2014-Jul-29 11:20 165 6 gusting 10 26.1
2014-Jul-29 11:10 134 5 gusting 10 26.1
2014-Jul-29 11:00 129 4 gusting 11 26.7
2014-Jul-29 10:50 122 7 gusting 10 26.1
2014-Jul-29 10:40 161 5 gusting 8 25.6
2014-Jul-29 10:30 229 3 gusting 6 25.6
2014-Jul-29 10:20 200 4 gusting 8 25.6
2014-Jul-29 10:10 212 4 gusting 7 25.6
2014-Jul-29 10:00 216 4 gusting 7 25.0
2014-Jul-29 09:50 169 1 gusting 5 25.0
2014-Jul-29 09:40 309 0 gusting 6 24.4
2014-Jul-29 09:30 243 1 gusting 6 24.4
2014-Jul-29 09:20 282 2 gusting 6 24.4
2014-Jul-29 09:10 259 6 gusting 10 23.9
2014-Jul-29 09:00 298 6 gusting 10 23.9
2014-Jul-29 08:50 272 5 gusting 11 23.9
2014-Jul-29 08:40 276 5 gusting 10 23.3
2014-Jul-29 08:30 299 4 gusting 8 23.3
2014-Jul-29 08:20 321 4 gusting 8 23.3
2014-Jul-29 08:10 292 3 gusting 5 22.8
2014-Jul-29 08:00 319 2 gusting 5 22.8
2014-Jul-29 07:50 333 2 gusting 6 22.2
2014-Jul-29 07:40 314 2 gusting 6 21.7
2014-Jul-29 07:30 298 2 gusting 5 21.1
2014-Jul-29 07:20 316 2 gusting 5 20.6
2014-Jul-29 07:10 331 2 gusting 5 20.0
2014-Jul-29 07:00 326 4 gusting 6 19.4
2014-Jul-29 06:50 334 1 gusting 4 19.4
2014-Jul-29 06:40 337 2 gusting 2 18.9
2014-Jul-29 06:30 332 18.9
2014-Jul-29 06:20 332 18.9
2014-Jul-29 06:10 332 18.9
2014-Jul-29 06:00 332 18.3
2014-Jul-29 05:50 332 18.3
2014-Jul-29 05:40 332 18.9
2014-Jul-29 05:30 332 18.9
2014-Jul-29 05:20 332 0 gusting 2 18.9
2014-Jul-29 05:10 332 18.3
2014-Jul-29 05:00 332 18.3
2014-Jul-29 04:50 332 18.9
2014-Jul-29 04:40 332 18.9
2014-Jul-29 04:30 332 18.9
2014-Jul-29 04:20 332 19.4
2014-Jul-29 04:10 332 0 gusting 2 19.4
2014-Jul-29 04:00 332 19.4
2014-Jul-29 03:50 332 0 gusting 1 19.4
2014-Jul-29 03:40 332 1 gusting 2 19.4
2014-Jul-29 03:30 332 19.4
2014-Jul-29 03:20 332 19.4
2014-Jul-29 03:10 332 0 gusting 2 19.4
2014-Jul-29 03:00 332 19.4
2014-Jul-29 02:50 332 19.4
2014-Jul-29 02:40 332 1 gusting 2 20.0
2014-Jul-29 02:30 332 0 gusting 1 20.0
2014-Jul-29 02:20 332 20.0
2014-Jul-29 02:10 332 20.6
2014-Jul-29 02:00 332 20.6
2014-Jul-29 01:50 120 0 gusting 2 20.6
2014-Jul-29 01:40 120 20.6
2014-Jul-29 01:30 120 20.6
2014-Jul-29 01:20 120 21.1
2014-Jul-29 01:10 120 21.1
2014-Jul-29 01:00 120 21.1
2014-Jul-29 00:50 120 0 gusting 2 21.1
2014-Jul-29 00:40 120 20.6
2014-Jul-29 00:30 120 20.6
2014-Jul-29 00:20 120 20.6
2014-Jul-29 00:10 120 0 gusting 2 20.6
2014-Jul-29 00:00 120 1 gusting 2 20.6
2014-Jul-28 23:50 108 0 gusting 1 20.6
2014-Jul-28 23:40 238 21.1
2014-Jul-28 23:30 238 21.1
2014-Jul-28 23:20 238 21.1
2014-Jul-28 23:10 238 0 gusting 2 21.1
2014-Jul-28 23:00 238 21.1
2014-Jul-28 22:50 238 21.7
2014-Jul-28 22:40 238 21.7
2014-Jul-28 22:30 238 21.7
2014-Jul-28 22:20 262 0 gusting 2 21.7
2014-Jul-28 22:10 228 1 gusting 2 21.7
2014-Jul-28 22:00 186 2 gusting 2 22.2
2014-Jul-28 21:50 186 0 gusting 2 22.2
2014-Jul-28 21:40 219 1 gusting 2 22.2
2014-Jul-28 21:30 219 1 gusting 2 22.2
2014-Jul-28 21:20 249 2 gusting 4 22.8
2014-Jul-28 21:10 237 4 gusting 6 22.8
2014-Jul-28 21:00 242 2 gusting 6 22.8
2014-Jul-28 20:50 254 4 gusting 6 22.8
2014-Jul-28 20:40 282 4 gusting 8 22.8
2014-Jul-28 20:30 253 5 gusting 7 23.3
2014-Jul-28 20:20 267 4 gusting 10 23.3
2014-Jul-28 20:10 258 6 gusting 10 23.3
2014-Jul-28 20:00 269 6 gusting 10 23.3
2014-Jul-28 19:50 238 5 gusting 10 23.3
2014-Jul-28 19:40 251 6 gusting 11 23.9
2014-Jul-28 19:30 264 6 gusting 11 23.9
2014-Jul-28 19:20 269 5 gusting 10 24.4
2014-Jul-28 19:10 283 6 gusting 10 25.0
2014-Jul-28 19:00 265 5 gusting 10 25.6
2014-Jul-28 18:50 270 5 gusting 7 25.6
2014-Jul-28 18:40 287 5 gusting 10 25.6
2014-Jul-28 18:30 291 5 gusting 11 25.6
2014-Jul-28 18:20 271 6 gusting 10 25.6
2014-Jul-28 18:10 275 6 gusting 11 25.6
2014-Jul-28 18:00 280 7 gusting 11 25.6
2014-Jul-28 17:50 267 7 gusting 11 25.6
2014-Jul-28 17:40 253 6 gusting 10 25.6
2014-Jul-28 17:30 267 7 gusting 13 25.6
2014-Jul-28 17:20 256 6 gusting 12 25.6
2014-Jul-28 17:10 245 8 gusting 13 26.1
2014-Jul-28 17:00 248 6 gusting 13 26.1
2014-Jul-28 16:50 214 5 gusting 8 26.1
2014-Jul-28 16:40 254 5 gusting 12 26.1
2014-Jul-28 16:30 236 6 gusting 13 26.1
2014-Jul-28 16:20 236 6 gusting 11 26.1
2014-Jul-28 16:10 237 6 gusting 10 26.7
2014-Jul-28 16:00 235 5 gusting 10 26.7
2014-Jul-28 15:50 246 8 gusting 12 26.7
2014-Jul-28 15:40 228 6 gusting 12 26.7
2014-Jul-28 15:30 228 5 gusting 11 26.7
2014-Jul-28 15:20 223 6 gusting 13 26.7
2014-Jul-28 15:10 228 6 gusting 13 26.7
2014-Jul-28 15:00 269 6 gusting 12 26.1
2014-Jul-28 14:50 233 7 gusting 12 26.7
2014-Jul-28 14:40 247 9 gusting 14 26.7
2014-Jul-28 14:30 286 8 gusting 12 26.7
2014-Jul-28 14:20 263 7 gusting 13 26.7
2014-Jul-28 14:10 260 7 gusting 13 26.1
2014-Jul-28 14:00 245 10 gusting 17 25.6
2014-Jul-28 13:50 259 8 gusting 13 25.6
2014-Jul-28 13:40 249 8 gusting 14 26.1
2014-Jul-28 13:30 246 6 gusting 13 26.1
2014-Jul-28 13:20 244 7 gusting 13 25.6
2014-Jul-28 13:10 234 5 gusting 13 25.6
2014-Jul-28 13:00 229 6 gusting 12 26.1
2014-Jul-28 12:50 265 6 gusting 11 26.1
2014-Jul-28 12:40 244 6 gusting 12 26.1
2014-Jul-28 12:30 273 5 gusting 8 26.1
2014-Jul-28 12:20 262 6 gusting 11 26.1
2014-Jul-28 12:10 202 5 gusting 10 26.1
2014-Jul-28 12:00 234 7 gusting 10 25.6
2014-Jul-28 11:50 225 2 gusting 8 25.6
2014-Jul-28 11:40 212 3 gusting 7 26.1
2014-Jul-28 11:30 230 6 gusting 10 26.1
2014-Jul-28 11:20 240 5 gusting 8 25.6
2014-Jul-28 11:10 228 5 gusting 11 25.6
2014-Jul-28 11:00 254 5 gusting 12 25.6